Winfield, KS

6:17 PM CST on December 15, 2019 (GMT -0600)
Strother

Weather History for KWLD - October, 2019

Change the Weather History Date:

Saturday, October 19, 2019

  Actual Average Record
Temperature  
Mean Temperature 58 °F -  
Max Temperature 71 °F 68 °F 81 °F (2003)
Min Temperature 46 °F 46 °F 30 °F (2013)
Degree Days  
Heating Degree Days 7    
Growing Degree Days 8 (Base 50)    
Moisture  
Dew Point 48 °F    
Average Humidity 70    
Maximum Humidity 93    
Minimum Humidity 39    
Precipitation  
Precipitation 0.03 in - - ()
Sea Level Pressure  
Sea Level Pressure 29.77 in    
Wind  
Wind Speed 7 mph ()    
Max Wind Speed 20 mph    
Max Gust Speed 25 mph    
Visibility 9.8 miles    
Events Rain    
Averages and records for this station are not official NWS values.
T = Trace of Precipitation, MM = Missing Value Source: Averaged Metar Reports

Daily Weather History Graph

Daily Weather History Graph

Search for Another Location

Airport or City:

Astronomy

Oct. 19, 2019 Rise Set
Actual Time 7:39 AM CDT 6:46 PM CDT
Civil Twilight 7:13 AM CDT 7:12 PM CDT
Nautical Twilight 6:42 AM CDT 7:42 PM CDT
Astronomical Twilight 6:12 AM CDT 8:12 PM CDT
Moon 11:01 PM CDT (10/19) 1:07 PM CDT (10/19)
Length of Visible Light 11h 59m
Length of Day
11h 06m
Waning Gibbous, 69% of the Moon is Illuminated
Oct 19
Waning Gibbous
Oct 21
Last Quarter
Oct 27
New
Nov 4
First Quarter
Nov 12
Full

Hourly Weather History & Observations

Time (CDT) Temp. Dew Point Humidity Pressure Visibility Wind Dir Wind Speed Gust Speed Precip Events Conditions
12:54 AM 59.0 °F 45.0 °F 60% 29.62 in 10.0 mi SSE 12.7 mph 25.3 mph N/A   Clear
1:54 AM 57.9 °F 46.9 °F 67% 29.71 in 10.0 mi SSE 3.5 mph - N/A   Overcast
2:54 AM 57.0 °F 48.0 °F 72% 29.68 in 10.0 mi SE 5.8 mph - 0.00 in Rain Light Rain
3:54 AM 55.9 °F 51.1 °F 84% 29.68 in 10.0 mi SE 6.9 mph - 0.00 in   Overcast
4:54 AM 55.0 °F 51.1 °F 86% 29.69 in 10.0 mi SSE 3.5 mph - 0.03 in   Clear
5:54 AM 54.0 °F 52.0 °F 93% 29.72 in 10.0 mi Calm Calm - N/A   Overcast
6:54 AM 53.1 °F 51.1 °F 93% 29.74 in 10.0 mi WNW 5.8 mph - N/A   Clear
7:54 AM 53.1 °F 51.1 °F 93% 29.76 in 10.0 mi West 5.8 mph - N/A   Clear
8:54 AM 55.0 °F 52.0 °F 89% 29.78 in 9.0 mi NW 11.5 mph - N/A   Clear
9:54 AM 57.0 °F 52.0 °F 83% 29.80 in 10.0 mi NNW 10.4 mph - N/A   Partly Cloudy
10:54 AM 62.1 °F 53.1 °F 72% 29.80 in 10.0 mi North 12.7 mph - N/A   Clear
11:54 AM 64.0 °F 52.0 °F 65% 29.83 in 10.0 mi NNW 19.6 mph - N/A   Clear
12:54 PM 68.0 °F 50.0 °F 52% 29.81 in 10.0 mi North 17.3 mph - N/A   Clear
1:54 PM 70.0 °F 50.0 °F 49% 29.79 in 10.0 mi North 15.0 mph 24.2 mph N/A   Clear
2:54 PM 70.0 °F 48.0 °F 46% 29.78 in 10.0 mi North 13.8 mph 25.3 mph N/A   Clear
3:54 PM 70.0 °F 45.0 °F 41% 29.78 in 10.0 mi North 11.5 mph 23.0 mph N/A   Clear
4:54 PM 69.1 °F 44.1 °F 40% 29.79 in 10.0 mi North 13.8 mph - N/A   Clear
5:54 PM 68.0 °F 42.1 °F 39% 29.79 in 10.0 mi NNE 6.9 mph - N/A   Clear
6:54 PM 64.9 °F 42.1 °F 43% 29.80 in 10.0 mi ENE 3.5 mph - N/A   Clear
7:54 PM 55.0 °F 44.1 °F 67% 29.82 in 6.0 mi Calm Calm - N/A   Haze
8:54 PM 51.1 °F 46.0 °F 83% 29.83 in 10.0 mi Calm Calm - N/A   Clear
9:54 PM 50.0 °F 44.1 °F 80% 29.84 in 10.0 mi Calm Calm - N/A   Clear
10:54 PM 46.0 °F 42.1 °F 86% 29.86 in 10.0 mi Calm Calm - N/A   Clear
11:54 PM 46.0 °F 42.1 °F 86% 29.85 in 10.0 mi Calm Calm - N/A   Clear